Change the Weather History Date:

Monday, February 6, 2012

  Actual Average Record
Temperature  
Mean Temperature 37 °F 28 °F  
Max Temperature 53 °F 36 °F 55 °F (1990)
Min Temperature 20 °F 20 °F -4 °F (2015)
Degree Days  
Heating Degree Days 28 37  
Month to date heating degree days 167 223  
Since 1 July heating degree days 3077 3702  
Cooling Degree Days 0 0  
Month to date cooling degree days 0 0  
Year to date cooling degree days 0 0  
Moisture  
Dew Point 22 °F    
Average Humidity 61    
Maximum Humidity 92    
Minimum Humidity 30    
Precipitation  
Precipitation 0.00 in 0.08 in 1.75 in (1896)
Month to date precipitation T 0.51  
Year to date precipitation 2.99 3.21  
Snow  
Snow 0.00 in 0.30 in 7.40 in (1978)
Month to date snowfall 0.0 2.0  
Since 1 July snowfall 8.1 21.2  
Snow Depth 0.00 in    
Sea Level Pressure  
Sea Level Pressure 30.10 in    
Wind  
Wind Speed 4 mph (West)    
Max Wind Speed 15 mph    
Max Gust Speed 18 mph    
Visibility 10 miles    
Events      
T = Trace of Precipitation, MM = Missing Value Source: NWS Daily Summary

Daily Weather History Graph

Daily Weather History Graph

Search for Another Location

Airport or City:

Trip Planner

Search our weather history database for the weather conditions in past years. The results will help you decide how hot, cold, wet, or windy it might be!

Date:

Astronomy

Feb. 06, 2012 Rise Set
Actual Time 7:14 AM EST 5:29 PM EST
Civil Twilight 6:45 AM EST 5:58 PM EST
Nautical Twilight 6:12 AM EST 6:31 PM EST
Astronomical Twilight 5:40 AM EST 7:03 PM EST
Moon 4:31 PM EST 6:04 AM EST
Length of Visible Light 11h 13m
Length of Day
10h 15m
Waxing Gibbous, 98% of the Moon is Illuminated
Feb 6
Waxing Gibbous
Feb 7
Full
Feb 14
Last Quarter
Feb 21
New
Feb 29
First Quarter

Hourly Weather History & Observations

Time (EST) Temp. Windchill Dew Point Humidity Pressure Visibility Wind Dir Wind Speed Gust Speed Precip Events Conditions
12:54 AM 24.1 °F - 19.9 °F 84% 30.20 in 10.0 mi Calm Calm - N/A   Clear
1:54 AM 24.1 °F - 19.0 °F 81% 30.20 in 10.0 mi Calm Calm - N/A   Clear
2:54 AM 23.0 °F - 19.0 °F 85% 30.19 in 10.0 mi Calm Calm - N/A   Clear
3:54 AM 21.9 °F - 19.0 °F 89% 30.18 in 10.0 mi Calm Calm - N/A   Clear
4:54 AM 21.9 °F - 18.0 °F 85% 30.18 in 10.0 mi Calm Calm - N/A   Clear
5:36 AM 21.2 °F - 19.4 °F 93% 30.16 in 10.0 mi Calm Calm - N/A   Mostly Cloudy
5:54 AM 21.9 °F 17.2 °F 18.0 °F 85% 30.17 in 10.0 mi North 3.5 mph - N/A   Scattered Clouds
6:27 AM 21.2 °F - 17.6 °F 86% 30.16 in 10.0 mi Calm Calm - N/A   Mostly Cloudy
6:54 AM 21.0 °F - 18.0 °F 88% 30.18 in 10.0 mi Calm Calm - N/A   Scattered Clouds
7:54 AM 21.9 °F 15.7 °F 19.0 °F 89% 30.19 in 9.0 mi ESE 4.6 mph - N/A   Clear
8:54 AM 27.0 °F 23.0 °F 24.1 °F 89% 30.19 in 9.0 mi ESE 3.5 mph - N/A   Clear
9:54 AM 32.0 °F - 25.0 °F 75% 30.17 in 10.0 mi Calm Calm - N/A   Clear
10:54 AM 41.0 °F 34.3 °F 28.0 °F 60% 30.14 in 10.0 mi West 11.5 mph - N/A   Clear
11:54 AM 46.0 °F 41.0 °F 26.1 °F 46% 30.11 in 10.0 mi West 10.4 mph - N/A   Clear
12:54 PM 48.9 °F - 26.1 °F 41% 30.07 in 10.0 mi West 10.4 mph - N/A   Clear
1:54 PM 51.1 °F - 25.0 °F 36% 30.04 in 10.0 mi West 8.1 mph - N/A   Clear
2:54 PM 52.0 °F - 21.9 °F 31% 30.01 in 10.0 mi West 10.4 mph - N/A   Clear
3:54 PM 52.0 °F - 21.0 °F 30% 30.00 in 10.0 mi WSW 11.5 mph - N/A   Clear
4:54 PM 50.0 °F - 21.0 °F 32% 29.99 in 10.0 mi WSW 3.5 mph - N/A   Clear
5:54 PM 46.0 °F 44.8 °F 21.0 °F 37% 29.99 in 10.0 mi WSW 3.5 mph - N/A   Clear
6:54 PM 41.0 °F - 21.0 °F 45% 29.99 in 10.0 mi Calm Calm - N/A   Clear
7:54 PM 39.0 °F 36.8 °F 21.9 °F 50% 30.01 in 10.0 mi NNW 3.5 mph - N/A   Clear
8:54 PM 34.0 °F - 25.0 °F 70% 30.02 in 10.0 mi Calm Calm - N/A   Clear
9:54 PM 30.9 °F - 23.0 °F 72% 30.03 in 10.0 mi Calm Calm - N/A   Clear
10:54 PM 30.9 °F - 23.0 °F 72% 30.02 in 10.0 mi Calm Calm - N/A   Clear
11:54 PM 30.0 °F - 23.0 °F 75% 30.03 in 10.0 mi Calm Calm - N/A   Clear